Regional Weather Roundup
Issued by NWS Jackson, KY

Home | Current Version | Previous Version | Text Only | Print | Product List | Glossary Off
Versions: 1 2 3 4 5 6 7 8 9 10 11 12 13 14 15 16 17 18 19 20 21 22 23 24 25 26 27

000
ASUS43 KJKL 170310
RWRJKL

EAST KENTUCKY HOURLY WEATHER ROUNDUP
NATIONAL WEATHER SERVICE JACKSON KY
1000 PM EST THU NOV 16 2017

NOTE: "FAIR" INDICATES FEW OR NO CLOUDS BELOW 12,000 FEET WITH
NO SIGNIFICANT WEATHER AND/OR OBSTRUCTIONS TO VISIBILITY.

* THESE REPORTS ARE NOT UNDER NWS QUALITY CONTROL AND MAY NOT
  REPORT WEATHER SUCH AS PRECIPITATION AND FOG.

KYZ079-080-083-085-087-088-110-112-115-119-120-170400
...EASTERN KENTUCKY...

CITY           SKY/WX    TMP DP  RH WIND       PRES   REMARKS
JACKSON        CLEAR     31  28  89 CALM      30.25R
LONDON         CLOUDY    36  32  85 NE7       30.23R WCI  30
SOMERSET*      CLEAR     34  32  93 N3        30.25S
MONTICELLO*    CLEAR     35  33  92 NW6       30.25R WCI  30
WILLIAMSBURG*  CLEAR     37  36  93 N5        30.22R WCI  34
MIDDLESBORO*   CLEAR     37  35  94 W3        30.21R
HARLAN APT*    CLOUDY    41  34  75 CALM      30.20R
PIKE CO APT*   CLOUDY    35  31  88 N7        30.24R WCI  29
BIG SANDY APT* CLOUDY    34  31  88 NE3       30.26R
MOREHEAD APT*  CLOUDY    36  28  75 NE5G12    30.28R WCI  32
$$

KYZ035-036-041-042-044-050-067-078-099-170400
...CENTRAL KENTUCKY...

CITY           SKY/WX    TMP DP  RH WIND       PRES   REMARKS
MT STERLING*   CLOUDY    34  30  86 E9        30.28R WCI  26
FLEMING/MASON* CLOUDY    35  29  79 NE7       30.29S WCI  29
DANVILLE*      CLOUDY    34  32  93 NE10      30.25F WCI  26
LEXINGTON      CLOUDY    35  30  82 NE8       30.26R WCI  29
FRANKFORT      CLOUDY    36  28  73 E9        30.25S WCI  29
LOUISVILLE     PTCLDY    36  30  79 E5        30.26S WCI  32
LEBANON*       CLOUDY    36  30  80 NE3       30.25R
GLASGOW*       CLEAR     34  32  94 NE6       30.23S WCI  29
BOWLING GREEN  CLEAR     36  33  89 NE3       30.24S
$$

KYZ091>093-OHZ055-061-077-WVZ005-015-034-035-042-170400
...SOUTHERN OHIO/WEST VIRGINIA...

CITY           SKY/WX    TMP DP  RH WIND       PRES   REMARKS
COVINGTON      CLOUDY    36  29  75 NE6       30.26S WCI  31
COLUMBUS       CLOUDY    41  31  67 NW9       30.25R
DAYTON         CLOUDY    37  32  82 N6        30.26S WCI  32
WILMINGTON     CLOUDY    37  31  78 N3        30.26R
HUNTINGTON     CLOUDY    38  28  67 N6        30.27R WCI  33
CHARLESTON     CLOUDY    38  29  70 VRB3      30.26R
PINEVILLE*     PTCLDY    36  32  84 MISG      30.25R
BECKLEY        CLOUDY    32  27  81 N9        30.17R WCI  24
BLUEFIELD      MOCLDY    35  30  82 NW7       30.15R WCI  29
LOGAN CO APT*  CLOUDY    36  30  80 N3        30.22R
$$

VAZ002-007-008-TNZ017-027-036-066-071-170400
...SOUTHWEST VIRGINIA/EAST TENNESSEE...

CITY           SKY/WX    TMP DP  RH WIND       PRES   REMARKS
WISE*          CLOUDY    37  37 100 CALM      30.18R
JONESVILLE*      N/A     45  36  70 CALM      30.20R
ABINGDON*      CLEAR     43  33  68 CALM      30.17R
BRISTOL        CLEAR     40  34  79 N5        30.17R
MORRISTOWN*    CLEAR     46  36  66 CALM      30.16S
SEVIERVILLE*   CLEAR     41  36  81 CALM      30.17R
KNOXVILLE      PTCLDY    44  40  85 E3        30.16R
LAFOLLETTE*    CLEAR     45  37  76 E5        30.22S
OAK RIDGE      CLEAR     43  39  86 CALM      30.18R
CROSSVILLE     CLEAR     42  33  70 N3        30.18R
NASHVILLE      CLEAR     42  36  79 N9        30.21R
$$

...KEY TO REMARKS...
VSB - VISIBILITY IN MILES
WCI - WIND CHILL INDEX
HX  - HEAT INDEX

$$




USA.gov is the U.S. government's official web portal to all federal, state and local government web resources and services.